Overview Statistics Trail Chart Weather Telemetry Raw packets
 

This is the latest recevied weather packets stored in our database for station/object N9BID. If no packets are shown the sender has not sent any weather packets the latest 10 day(s).

<< 102 103 104 105 106 107 108 >>
Time Temp. Humidity Pressure Rain* Wind** Luminosity Snow
1787795263 17.22° C 97% 1014.2 hPa 0 mm - 0 W/m² -
1787794962 17.78° C 97% 1013.8 hPa 0 mm - 0 W/m² -
1787794657 17.78° C 97% 1013.8 hPa 0 mm - 0 W/m² -
1787794353 17.78° C 97% 1013.8 hPa 0 mm - 0 W/m² -
1787794047 17.78° C 97% 1013.8 hPa 0 mm - 0 W/m² -
1787793744 17.78° C 96% 1013.5 hPa 0 mm - 0 W/m² -
1787793444 18.33° C 96% 1013.7 hPa 0 mm - 0 W/m² -
1787793139 18.33° C 95% 1013.5 hPa 0 mm - 0 W/m² -
1787792835 18.89° C 94% 1013.6 hPa 0 mm - 0 W/m² -
1787792535 18.89° C 94% 1013.4 hPa 0 mm - 0 W/m² -
1787792231 18.89° C 93% 1013.4 hPa 0 mm - 0 W/m² -
1787791930 18.89° C 92% 1013.4 hPa 0 mm - 0 W/m² -
1787791624 19.44° C 92% 1013.2 hPa 0 mm - 2 W/m² -
1787791320 20° C 90% 1013.2 hPa 0 mm - 4 W/m² -
1787791015 20° C 89% 1013.1 hPa 0 mm - 6 W/m² -
1787790711 20.56° C 88% 1013.1 hPa 0 mm - 9 W/m² -
1787790406 20.56° C 88% 1013.1 hPa 0 mm - 11 W/m² -
1787790101 20.56° C 88% 1013 hPa 0 mm - 14 W/m² -
1787789797 20.56° C 87% 1013.1 hPa 0 mm - 18 W/m² -
1787789491 21.11° C 87% 1012.9 hPa 0 mm - 23 W/m² -
1787789190 21.11° C 87% 1013.1 hPa 0 mm - 24 W/m² -
1787788885 21.11° C 86% 1012.7 hPa 0 mm - 24 W/m² -
1787788582 21.67° C 86% 1013 hPa 0 mm - 27 W/m² -
1787788278 21.67° C 85% 1012.7 hPa 0 mm - 30 W/m² -
1787787968 22.22° C 84% 1013 hPa 0 mm - 32 W/m² -

* Rain latest hour (hover to see other rain measurements)
** Current wind speed in m/s (hover to see current wind gust speed)